[Date Prev][Date Next][Thread Prev][Thread Next] - [Date Index][Thread Index][Author Index]
2 Line ISS Keps 8-19
- Subject: [sarex] 2 Line ISS Keps 8-19
- From: "Dave Larsen PhD" <doc@xxxxxxxxxxx>
- Date: Thu, 19 Aug 2004 04:22:47 -0700
ISS
1 25544U 98067A 04232.42767396 .00020709 00000-0 16556-3 0 4792
2 25544 51.6333 2.8847 0005098 123.6459 348.4738 15.71055209328256
----
Via the sarex mailing list at AMSAT.ORG courtesy of AMSAT-NA.
To unsubscribe, send "unsubscribe sarex" to Majordomo@amsat.org
AMSAT Home